Terminal Aerodrome Forecast
Issued by NWS Salt Lake City, UT

Home | Current Version | Previous Version | Text Only | Print | Product List | Glossary On
Versions: 1 2 3 4 5 6 7 8 9 10 11 12 13 14 15 16 17 18 19 20 21 22 23 24 25 26 27 28 29 30 31 32 33 34 35 36 37 38 39 40 41 42 43 44 45 46 47 48 49 50
000
FTUS45 KSLC 242341
TAFSLC
TAF
KSLC 242341Z 2500/2606 25012KT P6SM SCT060
     FM250200 15006KT P6SM SCT060
     FM251300 15013G23KT P6SM VCSH SCT020 BKN040
     FM251500 15009KT P6SM -SHRASN SCT010 BKN030
     FM251800 17008KT P6SM -SHRA SCT015 BKN040
     FM260200 15007KT P6SM SCT050=

USA.gov is the U.S. government's official web portal to all federal, state and local government web resources and services.